| time (UTC) | temp F | wind direction | speed knots | gust knots | rain 1hr in | rain 24hr in | rain mn in | humidity % | barometer mb |
| 20260906113352 | 77 | 240 | 0.0 | 0.0 | 0.00 | 0.00 | 0.00 | 99 | 1010.9 |
| 20260906112848 | 77 | 240 | 0.0 | 0.0 | 0.00 | 0.00 | 0.00 | 99 | 1010.4 |
| 20260906112344 | 77 | 240 | 0.0 | 0.0 | 0.00 | 0.00 | 0.00 | 99 | 1010.5 |
| 20260906111843 | 77 | 240 | 0.0 | 0.0 | 0.00 | 0.00 | 0.00 | 99 | 1010.2 |
| 20260906111338 | 77 | 240 | 0.0 | 0.0 | 0.00 | 0.00 | 0.00 | 99 | 1010.3 |
| 20260906110833 | 77 | 240 | 0.0 | 0.0 | 0.00 | 0.00 | 0.00 | 99 | 1010.3 |
| 20260906110329 | 77 | 241 | 0.0 | 0.0 | 0.00 | 0.00 | 0.00 | 99 | 1010.4 |
| 20260906105827 | 77 | 241 | 0.0 | 0.0 | 0.00 | 0.00 | 0.00 | 99 | 1010.2 |
| 20260906105323 | 77 | 241 | 0.0 | 0.0 | 0.00 | 0.00 | 0.00 | 99 | 1010.1 |
| 20260906104819 | 77 | 241 | 0.0 | 0.0 | 0.00 | 0.00 | 0.00 | 99 | 1010.2 |
| 20260906104318 | 77 | 242 | 0.0 | 0.0 | 0.00 | 0.00 | 0.00 | 99 | 1010.1 |
| 20260906103816 | 77 | 242 | 0.0 | 0.0 | 0.00 | 0.00 | 0.00 | 99 | 1010.0 |
| 20260906103315 | 77 | 249 | 0.0 | 0.0 | 0.00 | 0.00 | 0.00 | 99 | 1010.2 |
| 20260906102811 | 77 | 249 | 0.0 | 0.0 | 0.00 | 0.00 | 0.00 | 99 | 1009.9 |
| 20260906102310 | 78 | 249 | 0.0 | 0.0 | 0.00 | 0.00 | 0.00 | 99 | 1009.9 |
| 20260906101805 | 78 | 249 | 0.0 | 0.0 | 0.00 | 0.00 | 0.00 | 99 | 1010.1 |
| 20260906101300 | 78 | 249 | 0.0 | 0.0 | 0.00 | 0.00 | 0.00 | 99 | 1009.9 |
| 20260906100756 | 78 | 249 | 0.0 | 0.0 | 0.00 | 0.00 | 0.00 | 99 | 1010.2 |
| 20260906100255 | 78 | 249 | 0.0 | 0.0 | 0.00 | 0.00 | 0.00 | 99 | 1010.0 |
| 20260906095750 | 78 | 249 | 0.0 | 0.0 | 0.00 | 0.00 | 0.00 | 99 | 1009.8 |
| 20260906095246 | 78 | 249 | 0.0 | 0.0 | 0.00 | 0.00 | 0.00 | 99 | 1009.7 |
| 20260906094745 | 78 | 249 | 0.0 | 0.0 | 0.00 | 0.00 | 0.00 | 99 | 1010.0 |
| 20260906094240 | 78 | 249 | 0.0 | 0.0 | 0.00 | 0.00 | 0.00 | 99 | 1009.9 |
| 20260906093736 | 78 | 249 | 0.0 | 0.0 | 0.00 | 0.00 | 0.00 | 99 | 1009.7 |
| 20260906093231 | 78 | 249 | 0.0 | 0.0 | 0.00 | 0.00 | 0.00 | 99 | 1009.6 |
| 20260906092727 | 78 | 248 | 0.0 | 0.0 | 0.00 | 0.00 | 0.00 | 99 | 1009.6 |
| 20260906092226 | 78 | 249 | 0.0 | 0.0 | 0.00 | 0.00 | 0.00 | 99 | 1009.7 |
| 20260906091722 | 78 | 249 | 0.0 | 0.0 | 0.00 | 0.00 | 0.00 | 99 | 1009.6 |
| 20260906091218 | 78 | 249 | 0.0 | 0.0 | 0.00 | 0.00 | 0.00 | 99 | 1009.6 |
| 20260906090715 | 78 | 249 | 0.0 | 0.0 | 0.00 | 0.00 | 0.00 | 99 | 1009.4 |
| 20260906090213 | 78 | 249 | 0.0 | 0.0 | 0.00 | 0.00 | 0.00 | 99 | 1009.6 |
| 20260906085713 | 78 | 249 | 0.0 | 0.0 | 0.00 | 0.00 | 0.00 | 99 | 1009.6 |
| 20260906085212 | 78 | 249 | 0.0 | 0.0 | 0.00 | 0.00 | 0.00 | 99 | 1009.6 |
| 20260906084706 | 78 | 252 | 0.0 | 0.0 | 0.00 | 0.00 | 0.00 | 99 | 1009.7 |
| 20260906084201 | 78 | 252 | 0.0 | 0.0 | 0.00 | 0.00 | 0.00 | 99 | 1009.8 |
| 20260906083656 | 78 | 252 | 0.0 | 0.0 | 0.00 | 0.00 | 0.00 | 99 | 1009.7 |
| 20260906083151 | 78 | 252 | 0.0 | 0.0 | 0.00 | 0.00 | 0.00 | 99 | 1009.9 |
| 20260906082646 | 78 | 252 | 0.0 | 0.0 | 0.00 | 0.00 | 0.00 | 99 | 1010.0 |
| 20260906082141 | 78 | 252 | 0.0 | 0.0 | 0.00 | 0.00 | 0.00 | 99 | 1009.7 |
| 20260906081637 | 78 | 253 | 0.0 | 0.0 | 0.00 | 0.00 | 0.00 | 99 | 1009.7 |
| 20260906081132 | 78 | 253 | 0.0 | 0.0 | 0.00 | 0.00 | 0.00 | 99 | 1009.8 |
| 20260906080628 | 78 | 253 | 0.0 | 0.0 | 0.00 | 0.00 | 0.00 | 99 | 1009.8 |
| 20260906080125 | 78 | 253 | 0.0 | 0.0 | 0.00 | 0.00 | 0.00 | 99 | 1009.6 |
| 20260906075624 | 78 | 258 | 0.0 | 0.0 | 0.00 | 0.00 | 0.00 | 99 | 1009.8 |
| 20260906075119 | 78 | 258 | 0.0 | 0.0 | 0.00 | 0.00 | 0.00 | 99 | 1009.7 |
| 20260906074614 | 78 | 257 | 0.0 | 0.0 | 0.00 | 0.00 | 0.00 | 99 | 1009.6 |
| 20260906074113 | 78 | 276 | 0.0 | 0.0 | 0.00 | 0.00 | 0.00 | 99 | 1009.6 |
| 20260906073607 | 78 | 304 | 0.0 | 0.0 | 0.00 | 0.00 | 0.00 | 99 | 1009.7 |
| 20260906073103 | 78 | 303 | 0.0 | 0.0 | 0.00 | 0.00 | 0.00 | 99 | 1009.7 |
| 20260906072559 | 78 | 304 | 0.0 | 0.0 | 0.00 | 0.00 | 0.00 | 99 | 1009.5 |
| 20260906072055 | 78 | 304 | 0.0 | 0.0 | 0.00 | 0.00 | 0.00 | 99 | 1009.9 |
| 20260906071551 | 78 | 304 | 0.0 | 0.0 | 0.00 | 0.00 | 0.00 | 99 | 1009.7 |
| 20260906071051 | 78 | 304 | 0.0 | 0.0 | 0.00 | 0.00 | 0.00 | 99 | 1009.7 |
| 20260906070547 | 78 | 304 | 0.0 | 0.0 | 0.00 | 0.00 | 0.00 | 99 | 1009.9 |
| 20260906070043 | 78 | 304 | 0.0 | 0.0 | 0.00 | 0.00 | 0.00 | 99 | 1009.8 |
| 20260906065542 | 78 | 301 | 0.0 | 0.0 | 0.00 | 0.00 | 0.00 | 99 | 1009.7 |
| 20260906065038 | 78 | 300 | 0.0 | 0.0 | 0.00 | 0.00 | 0.00 | 99 | 1009.8 |
| 20260906064534 | 78 | 300 | 0.0 | 0.0 | 0.00 | 0.00 | 0.00 | 99 | 1009.7 |
| 20260906064029 | 78 | 300 | 0.0 | 0.0 | 0.00 | 0.00 | 0.00 | 99 | 1009.9 |
| 20260906063524 | 78 | 300 | 0.0 | 0.0 | 0.00 | 0.00 | 0.00 | 99 | 1010.0 |
| 20260906063020 | 78 | 300 | 0.0 | 0.0 | 0.00 | 0.00 | 0.00 | 99 | 1009.9 |
| 20260906062515 | 78 | 300 | 0.0 | 0.0 | 0.00 | 0.00 | 0.00 | 99 | 1010.0 |
| 20260906062009 | 78 | 300 | 0.0 | 0.0 | 0.00 | 0.00 | 0.00 | 99 | 1010.1 |
| 20260906061505 | 78 | 300 | 0.0 | 0.0 | 0.00 | 0.00 | 0.00 | 99 | 1010.0 |
| 20260906060959 | 79 | 300 | 0.0 | 0.0 | 0.00 | 0.00 | 0.00 | 99 | 1010.3 |
| 20260906060456 | 79 | 300 | 0.0 | 0.0 | 0.00 | 0.00 | 0.00 | 99 | 1010.3 |
| 20260906055952 | 79 | 299 | 0.0 | 0.0 | 0.00 | 0.00 | 0.00 | 99 | 1010.4 |
| 20260906055442 | 79 | 299 | 0.0 | 0.0 | 0.00 | 0.00 | 0.00 | 99 | 1010.2 |
| 20260906054937 | 79 | 299 | 0.0 | 0.0 | 0.00 | 0.00 | 0.00 | 99 | 1010.4 |
| 20260906054432 | 79 | 299 | 0.0 | 0.0 | 0.00 | 0.00 | 0.00 | 99 | 1010.5 |
| 20260906053928 | 79 | 299 | 0.0 | 0.0 | 0.00 | 0.00 | 0.00 | 99 | 1010.5 |
| 20260906053424 | 79 | 299 | 0.0 | 0.0 | 0.00 | 0.00 | 0.00 | 99 | 1010.3 |
| 20260906052919 | 79 | 299 | 0.0 | 0.0 | 0.00 | 0.00 | 0.00 | 99 | 1010.5 |
| 20260906052415 | 79 | 275 | 0.0 | 0.0 | 0.00 | 0.00 | 0.00 | 99 | 1010.4 |
| 20260906051913 | 80 | 261 | 0.0 | 0.0 | 0.00 | 0.00 | 0.00 | 99 | 1010.3 |
| 20260906051412 | 80 | 213 | 0.0 | 0.0 | 0.00 | 0.00 | 0.00 | 99 | 1010.3 |
| 20260906050908 | 80 | 227 | 0.0 | 0.0 | 0.00 | 0.00 | 0.00 | 99 | 1010.5 |
| 20260906050403 | 80 | 234 | 0.0 | 0.0 | 0.00 | 0.00 | 0.00 | 99 | 1010.6 |
| 20260906045902 | 80 | 235 | 0.0 | 0.0 | 0.00 | 0.00 | 0.00 | 99 | 1010.6 |
| 20260906045401 | 80 | 223 | 0.0 | 0.9 | 0.00 | 0.00 | 0.00 | 99 | 1010.4 |
| 20260906044857 | 80 | 213 | 0.0 | 0.0 | 0.00 | 0.00 | 0.00 | 99 | 1010.4 |
| 20260906044357 | 80 | 243 | 0.0 | 0.0 | 0.00 | 0.00 | 0.00 | 99 | 1010.4 |
| 20260906043853 | 80 | 246 | 0.0 | 0.0 | 0.00 | 0.00 | 0.00 | 99 | 1010.7 |
| 20260906043349 | 80 | 249 | 0.0 | 0.0 | 0.00 | 0.00 | 0.00 | 99 | 1010.7 |
| 20260906042844 | 80 | 262 | 0.0 | 0.0 | 0.00 | 0.00 | 0.00 | 99 | 1010.5 |
| 20260906042343 | 80 | 253 | 0.0 | 0.0 | 0.00 | 0.00 | 0.00 | 99 | 1010.7 |
| 20260906041838 | 80 | 247 | 0.9 | 0.9 | 0.00 | 0.00 | 0.00 | 99 | 1010.5 |
| 20260906041334 | 80 | 229 | 0.9 | 0.9 | 0.00 | 0.00 | 0.00 | 99 | 1010.4 |
| 20260906040834 | 80 | 235 | 0.9 | 0.9 | 0.00 | 0.00 | 0.00 | 98 | 1010.5 |
| 20260906040329 | 81 | 195 | 2.6 | 2.6 | 0.00 | 0.00 | 0.00 | 98 | 1010.4 |
| 20260906035824 | 81 | 235 | 1.7 | 1.7 | 0.00 | 0.00 | 0.00 | 98 | 1010.6 |
| 20260906035319 | 81 | 254 | 0.9 | 0.9 | 0.00 | 0.00 | 0.00 | 98 | 1010.9 |
| 20260906034815 | 81 | 236 | 1.7 | 2.6 | 0.00 | 0.00 | 0.00 | 98 | 1011.1 |
| 20260906034314 | 81 | 196 | 1.7 | 1.7 | 0.00 | 0.00 | 0.00 | 98 | 1010.9 |
| 20260906033810 | 81 | 212 | 1.7 | 1.7 | 0.00 | 0.00 | 0.00 | 98 | 1011.1 |
| 20260906033309 | 81 | 205 | 1.7 | 2.6 | 0.00 | 0.00 | 0.00 | 98 | 1011.3 |
| 20260906032806 | 81 | 197 | 1.7 | 1.7 | 0.00 | 0.00 | 0.00 | 98 | 1011.1 |
| 20260906032301 | 81 | 180 | 0.9 | 1.7 | 0.00 | 0.00 | 0.00 | 98 | 1011.1 |
| 20260906031757 | 81 | 199 | 2.6 | 2.6 | 0.00 | 0.00 | 0.00 | 98 | 1010.8 |
| 20260906031253 | 81 | 204 | 2.6 | 2.6 | 0.00 | 0.00 | 0.00 | 98 | 1011.0 |
| 20260906030752 | 82 | 179 | 4.3 | 5.2 | 0.00 | 0.00 | 0.00 | 98 | 1011.2 |
| 20260906030247 | 82 | 203 | 2.6 | 2.6 | 0.00 | 0.00 | 0.00 | 98 | 1011.3 |
| 20260906025747 | 82 | 203 | 2.6 | 2.6 | 0.00 | 0.00 | 0.00 | 98 | 1011.4 |
| 20260906025241 | 82 | 227 | 1.7 | 2.6 | 0.00 | 0.00 | 0.00 | 98 | 1011.1 |
| 20260906024740 | 82 | 168 | 2.6 | 2.6 | 0.00 | 0.00 | 0.00 | 98 | 1011.0 |
| 20260906024239 | 82 | 193 | 4.3 | 5.2 | 0.00 | 0.00 | 0.00 | 98 | 1011.1 |
| 20260906023735 | 82 | 263 | 4.3 | 7.0 | 0.00 | 0.00 | 0.00 | 98 | 1011.1 |
| 20260906023230 | 82 | 186 | 3.5 | 4.3 | 0.00 | 0.00 | 0.00 | 98 | 1011.2 |
| 20260906022726 | 82 | 200 | 2.6 | 2.6 | 0.00 | 0.00 | 0.00 | 99 | 1011.1 |
| 20260906022221 | 82 | 192 | 2.6 | 2.6 | 0.00 | 0.00 | 0.00 | 99 | 1011.0 |
| 20260906021717 | 82 | 196 | 2.6 | 2.6 | 0.00 | 0.00 | 0.00 | 99 | 1011.1 |
| 20260906021216 | 82 | 190 | 2.6 | 2.6 | 0.00 | 0.00 | 0.00 | 98 | 1011.1 |
| 20260906020711 | 82 | 186 | 2.6 | 2.6 | 0.00 | 0.00 | 0.00 | 98 | 1011.2 |
| 20260906020206 | 82 | 161 | 2.6 | 4.3 | 0.00 | 0.00 | 0.00 | 98 | 1011.1 |
| 20260906015706 | 82 | 178 | 2.6 | 2.6 | 0.00 | 0.00 | 0.00 | 98 | 1011.1 |
| 20260906015159 | 82 | 193 | 2.6 | 4.3 | 0.00 | 0.00 | 0.00 | 98 | 1011.1 |
| 20260906014658 | 82 | 184 | 2.6 | 4.3 | 0.00 | 0.00 | 0.00 | 98 | 1011.1 |
| 20260906014154 | 82 | 208 | 1.7 | 2.6 | 0.00 | 0.00 | 0.00 | 98 | 1011.0 |
| 20260906013650 | 82 | 190 | 2.6 | 4.3 | 0.00 | 0.00 | 0.00 | 98 | 1011.0 |
| 20260906013145 | 82 | 205 | 1.7 | 2.6 | 0.00 | 0.00 | 0.00 | 97 | 1010.9 |
| 20260906012640 | 82 | 221 | 2.6 | 4.3 | 0.00 | 0.00 | 0.00 | 97 | 1010.9 |
| 20260906012139 | 83 | 191 | 1.7 | 2.6 | 0.00 | 0.00 | 0.00 | 97 | 1010.9 |
| 20260906011635 | 83 | 219 | 1.7 | 1.7 | 0.00 | 0.00 | 0.00 | 97 | 1010.9 |
| 20260906011130 | 83 | 225 | 2.6 | 2.6 | 0.00 | 0.00 | 0.00 | 97 | 1010.7 |
| 20260906010625 | 83 | 170 | 1.7 | 1.7 | 0.00 | 0.00 | 0.00 | 97 | 1010.7 |
| 20260906010122 | 83 | 189 | 2.6 | 2.6 | 0.00 | 0.00 | 0.00 | 97 | 1010.7 |
| 20260906005621 | 83 | 167 | 1.7 | 1.7 | 0.00 | 0.00 | 0.00 | 96 | 1010.5 |
| 20260906005120 | 83 | 145 | 4.3 | 5.2 | 0.00 | 0.00 | 0.00 | 96 | 1010.5 |
| 20260906004619 | 83 | 168 | 2.6 | 2.6 | 0.00 | 0.00 | 0.00 | 96 | 1010.3 |
| 20260906004114 | 83 | 228 | 3.5 | 4.3 | 0.00 | 0.00 | 0.00 | 96 | 1010.4 |
| 20260906003610 | 83 | 164 | 2.6 | 2.6 | 0.00 | 0.00 | 0.00 | 96 | 1010.5 |
| 20260906003106 | 83 | 189 | 1.7 | 1.7 | 0.00 | 0.00 | 0.00 | 95 | 1010.7 |
| 20260906002600 | 83 | 196 | 3.5 | 4.3 | 0.00 | 0.00 | 0.00 | 95 | 1010.6 |
| 20260906002055 | 83 | 183 | 3.5 | 4.3 | 0.00 | 0.00 | 0.00 | 95 | 1010.7 |
| 20260906001545 | 84 | 195 | 2.6 | 2.6 | 0.00 | 0.00 | 0.00 | 95 | 1010.7 |
| 20260906001044 | 84 | 187 | 2.6 | 2.6 | 0.00 | 0.00 | 0.00 | 94 | 1010.7 |
| 20260906000540 | 84 | 190 | 3.5 | 4.3 | 0.00 | 0.00 | 0.00 | 94 | 1010.5 |
| 20260906000035 | 84 | 234 | 2.6 | 2.6 | 0.00 | 0.00 | 0.00 | 94 | 1010.4 |
| 20260905235529 | 84 | 199 | 2.6 | 2.6 | 0.00 | 0.00 | 0.00 | 93 | 1010.4 |
| 20260905235024 | 84 | 202 | 2.6 | 2.6 | 0.00 | 0.00 | 0.00 | 93 | 1010.5 |
| 20260905234520 | 84 | 183 | 0.9 | 0.9 | 0.00 | 0.00 | 0.00 | 92 | 1010.4 |
| 20260905234014 | 85 | 160 | 3.5 | 4.3 | 0.00 | 0.00 | 0.00 | 92 | 1010.4 |
| 20260905233509 | 85 | 193 | 2.6 | 2.6 | 0.00 | 0.00 | 0.00 | 91 | 1010.5 |
| 20260905233009 | 85 | 203 | 1.7 | 1.7 | 0.00 | 0.00 | 0.00 | 90 | 1010.4 |
| 20260905232504 | 85 | 173 | 2.6 | 2.6 | 0.00 | 0.00 | 0.00 | 89 | 1010.6 |
| 20260905232000 | 86 | 147 | 3.5 | 4.3 | 0.00 | 0.00 | 0.00 | 89 | 1010.1 |
| 20260905231455 | 86 | 211 | 2.6 | 4.3 | 0.00 | 0.00 | 0.00 | 87 | 1010.4 |
| 20260905230947 | 86 | 196 | 2.6 | 4.3 | 0.00 | 0.00 | 0.00 | 86 | 1010.1 |
| 20260905230444 | 86 | 246 | 0.0 | 0.0 | 0.00 | 0.00 | 0.00 | 84 | 1009.9 |
| 20260905225937 | 86 | 246 | 0.0 | 0.0 | 0.00 | 0.00 | 0.00 | 83 | 1010.4 |
| 20260905225432 | 86 | 246 | 0.0 | 0.0 | 0.00 | 0.00 | 0.00 | 82 | 1010.2 |
| 20260905224927 | 87 | 246 | 0.0 | 0.0 | 0.00 | 0.00 | 0.00 | 81 | 1010.1 |
| 20260905224423 | 87 | 246 | 0.0 | 0.0 | 0.00 | 0.00 | 0.00 | 80 | 1010.1 |
| 20260905223916 | 87 | 246 | 0.0 | 0.0 | 0.00 | 0.00 | 0.00 | 80 | 1010.0 |
| 20260905223414 | 87 | 281 | 0.0 | 0.0 | 0.00 | 0.00 | 0.00 | 79 | 1010.1 |
| 20260905222909 | 88 | 282 | 0.0 | 0.0 | 0.00 | 0.00 | 0.00 | 79 | 1010.0 |
| 20260905222408 | 88 | 254 | 0.0 | 0.0 | 0.00 | 0.00 | 0.00 | 77 | 1010.2 |
| 20260905221904 | 88 | 234 | 0.0 | 0.0 | 0.00 | 0.00 | 0.00 | 78 | 1010.1 |
| 20260905221400 | 88 | 234 | 0.0 | 0.0 | 0.00 | 0.00 | 0.00 | 77 | 1010.3 |
| 20260905220855 | 89 | 252 | 0.0 | 0.0 | 0.00 | 0.00 | 0.00 | 76 | 1010.7 |
| 20260905220352 | 89 | 134 | 0.9 | 0.9 | 0.00 | 0.00 | 0.00 | 74 | 1010.6 |
| 20260905215851 | 89 | 253 | 0.0 | 0.9 | 0.00 | 0.00 | 0.00 | 74 | 1010.7 |
| 20260905215347 | 89 | 175 | 2.6 | 2.6 | 0.00 | 0.00 | 0.00 | 74 | 1010.8 |
| 20260905214843 | 89 | 259 | 0.0 | 0.0 | 0.00 | 0.00 | 0.00 | 76 | 1010.7 |
| 20260905214338 | 89 | 304 | 0.0 | 0.0 | 0.00 | 0.00 | 0.00 | 75 | 1010.5 |
| 20260905213833 | 89 | 311 | 0.9 | 0.9 | 0.00 | 0.00 | 0.00 | 73 | 1010.7 |
| 20260905213329 | 89 | 260 | 0.0 | 0.0 | 0.00 | 0.00 | 0.00 | 73 | 1010.5 |
| 20260905212824 | 89 | 210 | 0.0 | 0.9 | 0.00 | 0.00 | 0.00 | 73 | 1010.4 |
| 20260905212324 | 89 | 149 | 0.9 | 1.7 | 0.00 | 0.00 | 0.00 | 74 | 1010.4 |
| 20260905211819 | 89 | 274 | 0.0 | 0.0 | 0.00 | 0.00 | 0.00 | 74 | 1010.4 |
| 20260905211314 | 89 | 245 | 0.0 | 0.0 | 0.00 | 0.00 | 0.00 | 74 | 1010.5 |
| 20260905210811 | 89 | 318 | 0.0 | 0.9 | 0.00 | 0.00 | 0.00 | 74 | 1010.3 |
| 20260905210310 | 89 | 324 | 0.9 | 0.9 | 0.00 | 0.00 | 0.00 | 73 | 1010.2 |
| 20260905205809 | 89 | 278 | 0.0 | 0.9 | 0.00 | 0.00 | 0.00 | 72 | 1009.9 |
| 20260905205306 | 89 | 153 | 2.6 | 2.6 | 0.00 | 0.00 | 0.00 | 73 | 1010.3 |
| 20260905204803 | 89 | 345 | 0.0 | 0.0 | 0.00 | 0.00 | 0.00 | 74 | 1010.1 |
| 20260905204300 | 89 | 178 | 1.7 | 2.6 | 0.00 | 0.00 | 0.00 | 74 | 1009.9 |
| 20260905203758 | 89 | 282 | 0.0 | 0.0 | 0.00 | 0.00 | 0.00 | 73 | 1009.8 |
| 20260905203253 | 90 | 237 | 0.0 | 0.0 | 0.00 | 0.00 | 0.00 | 72 | 1009.8 |
| 20260905202749 | 90 | 260 | 1.7 | 2.6 | 0.00 | 0.00 | 0.00 | 73 | 1009.9 |
| 20260905202244 | 89 | 314 | 0.0 | 0.9 | 0.00 | 0.00 | 0.00 | 74 | 1009.9 |
| 20260905201740 | 90 | 338 | 0.9 | 0.9 | 0.00 | 0.00 | 0.00 | 74 | 1010.1 |
| 20260905201234 | 90 | 236 | 0.0 | 0.0 | 0.00 | 0.00 | 0.00 | 73 | 1010.1 |
| 20260905200729 | 90 | 151 | 2.6 | 2.6 | 0.00 | 0.00 | 0.00 | 73 | 1010.0 |
| 20260905200225 | 90 | 236 | 1.7 | 2.6 | 0.00 | 0.00 | 0.00 | 73 | 1010.0 |
| 20260905195723 | 89 | 159 | 1.7 | 2.6 | 0.00 | 0.00 | 0.00 | 75 | 1010.4 |
| 20260905195218 | 89 | 44 | 0.0 | 0.0 | 0.00 | 0.00 | 0.00 | 75 | 1010.5 |
| 20260905194713 | 89 | 104 | 0.0 | 0.9 | 0.00 | 0.00 | 0.00 | 75 | 1010.2 |
| 20260905194208 | 89 | 348 | 2.6 | 4.3 | 0.00 | 0.00 | 0.00 | 75 | 1010.3 |
| 20260905193702 | 89 | 334 | 2.6 | 4.3 | 0.00 | 0.00 | 0.00 | 75 | 1010.6 |
| 20260905193157 | 89 | 45 | 0.0 | 0.0 | 0.00 | 0.00 | 0.00 | 75 | 1010.6 |
| 20260905192653 | 89 | 354 | 1.7 | 1.7 | 0.00 | 0.00 | 0.00 | 74 | 1010.9 |
| 20260905192149 | 89 | 276 | 0.9 | 1.7 | 0.00 | 0.00 | 0.00 | 74 | 1011.0 |
| 20260905191648 | 89 | 0 | 0.9 | 0.9 | 0.00 | 0.00 | 0.00 | 75 | 1010.9 |
| 20260905191146 | 89 | 298 | 0.9 | 1.7 | 0.00 | 0.00 | 0.00 | 76 | 1011.0 |
| 20260905190644 | 89 | 356 | 2.6 | 2.6 | 0.00 | 0.00 | 0.00 | 76 | 1011.1 |
| 20260905190138 | 89 | 297 | 1.7 | 1.7 | 0.00 | 0.00 | 0.00 | 76 | 1011.1 |
| 20260905185637 | 89 | 336 | 0.0 | 0.9 | 0.00 | 0.00 | 0.00 | 77 | 1011.1 |
| 20260905185132 | 89 | 208 | 0.0 | 0.0 | 0.00 | 0.00 | 0.00 | 77 | 1011.1 |
| 20260905184626 | 89 | 327 | 0.0 | 0.9 | 0.00 | 0.00 | 0.00 | 78 | 1011.4 |
| 20260905184125 | 88 | 51 | 0.0 | 0.0 | 0.00 | 0.00 | 0.00 | 77 | 1011.4 |
| 20260905183624 | 88 | 276 | 0.0 | 0.9 | 0.00 | 0.00 | 0.00 | 78 | 1011.5 |
| 20260905183120 | 88 | 223 | 0.9 | 0.9 | 0.00 | 0.00 | 0.00 | 79 | 1011.4 |
| 20260905182614 | 87 | 334 | 0.0 | 0.0 | 0.00 | 0.00 | 0.00 | 80 | 1011.6 |
| 20260905182113 | 88 | 344 | 0.0 | 0.0 | 0.00 | 0.00 | 0.00 | 78 | 1011.8 |
| 20260905181608 | 88 | 70 | 0.9 | 1.7 | 0.00 | 0.00 | 0.00 | 79 | 1011.8 |
| 20260905181107 | 89 | 143 | 1.7 | 1.7 | 0.00 | 0.00 | 0.00 | 79 | 1011.9 |
| 20260905180602 | 88 | 314 | 0.9 | 1.7 | 0.00 | 0.00 | 0.00 | 79 | 1011.9 |
| 20260905180058 | 87 | 336 | 0.0 | 0.0 | 0.00 | 0.00 | 0.00 | 80 | 1012.3 |
| 20260905175556 | 88 | 350 | 1.7 | 2.6 | 0.00 | 0.00 | 0.00 | 80 | 1012.2 |
| 20260905175052 | 87 | 319 | 0.0 | 0.0 | 0.00 | 0.00 | 0.00 | 80 | 1012.3 |
| 20260905174548 | 88 | 2 | 0.0 | 0.9 | 0.00 | 0.00 | 0.00 | 81 | 1012.4 |
| 20260905174043 | 88 | 259 | 0.9 | 0.9 | 0.00 | 0.00 | 0.00 | 80 | 1012.2 |
| 20260905173540 | 87 | 75 | 0.9 | 0.9 | 0.00 | 0.00 | 0.00 | 82 | 1012.4 |
| 20260905173035 | 87 | 32 | 0.9 | 0.9 | 0.00 | 0.00 | 0.00 | 82 | 1012.4 |
| 20260905172533 | 87 | 282 | 0.0 | 0.0 | 0.00 | 0.00 | 0.00 | 82 | 1012.4 |
| 20260905172029 | 86 | 134 | 0.0 | 0.9 | 0.00 | 0.00 | 0.00 | 83 | 1012.7 |
| 20260905171525 | 86 | 75 | 0.9 | 1.7 | 0.00 | 0.00 | 0.00 | 83 | 1012.8 |
| 20260905171021 | 87 | 326 | 0.9 | 1.7 | 0.00 | 0.00 | 0.00 | 83 | 1012.8 |
| 20260905170518 | 86 | 281 | 0.0 | 0.0 | 0.00 | 0.00 | 0.00 | 85 | 1012.7 |
| 20260905170012 | 85 | 23 | 0.0 | 0.9 | 0.00 | 0.00 | 0.00 | 86 | 1012.9 |
| 20260905165507 | 84 | 257 | 0.0 | 0.0 | 0.00 | 0.00 | 0.00 | 86 | 1013.0 |
| 20260905164956 | 84 | 245 | 0.0 | 0.9 | 0.00 | 0.00 | 0.00 | 86 | 1013.3 |
| 20260905164455 | 84 | 347 | 0.9 | 1.7 | 0.00 | 0.00 | 0.00 | 87 | 1013.3 |
| 20260905163950 | 84 | 137 | 2.6 | 2.6 | 0.00 | 0.00 | 0.00 | 86 | 1013.3 |
| 20260905163447 | 85 | 31 | 0.9 | 1.7 | 0.00 | 0.00 | 0.00 | 87 | 1013.4 |
| 20260905162943 | 84 | 134 | 2.6 | 4.3 | 0.00 | 0.00 | 0.00 | 89 | 1013.8 |
| 20260905162438 | 84 | 289 | 0.9 | 0.9 | 0.00 | 0.00 | 0.00 | 89 | 1013.6 |
| 20260905161933 | 83 | 123 | 1.7 | 2.6 | 0.00 | 0.00 | 0.00 | 89 | 1013.6 |
| 20260905161432 | 83 | 284 | 0.9 | 1.7 | 0.00 | 0.00 | 0.00 | 90 | 1013.5 |
| 20260905160930 | 83 | 16 | 0.9 | 0.9 | 0.00 | 0.00 | 0.00 | 91 | 1013.8 |
| 20260905160424 | 82 | 270 | 0.9 | 1.7 | 0.00 | 0.00 | 0.00 | 92 | 1013.8 |
| 20260905155918 | 82 | 337 | 0.0 | 0.9 | 0.00 | 0.00 | 0.00 | 93 | 1013.7 |
| 20260905155413 | 82 | 328 | 0.9 | 1.7 | 0.00 | 0.00 | 0.00 | 93 | 1013.9 |
| 20260905154911 | 81 | 315 | 0.9 | 0.9 | 0.00 | 0.00 | 0.00 | 93 | 1013.9 |
| 20260905154407 | 82 | 276 | 0.0 | 0.0 | 0.00 | 0.00 | 0.00 | 93 | 1013.8 |
| 20260905153903 | 81 | 139 | 0.0 | 0.9 | 0.00 | 0.00 | 0.00 | 93 | 1013.9 |
| 20260905153359 | 81 | 359 | 0.0 | 0.9 | 0.00 | 0.00 | 0.00 | 94 | 1014.1 |
| 20260905152858 | 81 | 311 | 0.0 | 0.0 | 0.00 | 0.00 | 0.00 | 94 | 1014.3 |
| 20260905152357 | 81 | 273 | 0.9 | 0.9 | 0.00 | 0.00 | 0.00 | 94 | 1014.1 |
| 20260905151853 | 81 | 268 | 0.9 | 1.7 | 0.00 | 0.00 | 0.00 | 94 | 1014.0 |
| 20260905151349 | 81 | 196 | 0.9 | 0.9 | 0.00 | 0.00 | 0.00 | 94 | 1014.1 |
| 20260905150849 | 81 | 144 | 0.0 | 0.0 | 0.00 | 0.00 | 0.00 | 94 | 1014.2 |
| 20260905150343 | 80 | 132 | 1.7 | 1.7 | 0.00 | 0.00 | 0.00 | 94 | 1014.1 |
| 20260905145841 | 81 | 271 | 0.0 | 0.0 | 0.00 | 0.00 | 0.00 | 94 | 1014.3 |
| 20260905145340 | 81 | 179 | 0.0 | 0.0 | 0.00 | 0.00 | 0.00 | 95 | 1014.3 |
| 20260905144839 | 80 | 119 | 0.9 | 0.9 | 0.00 | 0.00 | 0.00 | 95 | 1014.3 |
| 20260905144335 | 80 | 13 | 0.9 | 1.7 | 0.00 | 0.00 | 0.00 | 95 | 1014.2 |
| 20260905143833 | 80 | 105 | 0.0 | 0.9 | 0.00 | 0.00 | 0.00 | 95 | 1014.2 |
| 20260905143328 | 80 | 326 | 0.9 | 1.7 | 0.00 | 0.00 | 0.00 | 95 | 1014.2 |
| 20260905142828 | 80 | 284 | 0.9 | 0.9 | 0.00 | 0.00 | 0.00 | 95 | 1014.2 |
| 20260905142321 | 80 | 49 | 0.9 | 0.9 | 0.00 | 0.00 | 0.00 | 95 | 1014.0 |
| 20260905141817 | 80 | 94 | 0.9 | 1.7 | 0.00 | 0.00 | 0.00 | 96 | 1014.1 |
| 20260905141313 | 80 | 149 | 1.7 | 1.7 | 0.00 | 0.00 | 0.00 | 96 | 1014.1 |
| 20260905140808 | 80 | 327 | 1.7 | 1.7 | 0.00 | 0.00 | 0.00 | 98 | 1014.0 |
| 20260905140302 | 79 | 318 | 0.0 | 0.9 | 0.00 | 0.00 | 0.00 | 99 | 1013.8 |
| 20260905135801 | 79 | 297 | 0.9 | 0.9 | 0.00 | 0.00 | 0.00 | 99 | 1014.1 |
| 20260905135258 | 79 | 289 | 0.0 | 0.0 | 0.00 | 0.00 | 0.00 | 99 | 1014.0 |
| 20260905134758 | 78 | 309 | 0.0 | 0.9 | 0.00 | 0.00 | 0.00 | 99 | 1014.0 |
| 20260905134256 | 78 | 343 | 0.9 | 1.7 | 0.00 | 0.00 | 0.00 | 99 | 1014.3 |
| 20260905133751 | 78 | 131 | 0.9 | 1.7 | 0.00 | 0.00 | 0.00 | 99 | 1014.3 |
| 20260905133247 | 78 | 280 | 0.0 | 0.0 | 0.00 | 0.00 | 0.00 | 99 | 1014.2 |
| 20260905132746 | 78 | 316 | 0.0 | 0.0 | 0.00 | 0.00 | 0.00 | 99 | 1014.1 |
| 20260905132242 | 77 | 49 | 0.0 | 0.0 | 0.00 | 0.00 | 0.00 | 99 | 1014.2 |
| 20260905131736 | 77 | 339 | 0.0 | 0.0 | 0.00 | 0.00 | 0.00 | 99 | 1014.2 |
| 20260905131232 | 77 | 265 | 0.0 | 0.0 | 0.00 | 0.00 | 0.00 | 99 | 1014.2 |
| 20260905130726 | 77 | 92 | 0.0 | 0.0 | 0.00 | 0.00 | 0.00 | 99 | 1014.3 |
| 20260905130225 | 77 | 90 | 0.0 | 0.0 | 0.00 | 0.00 | 0.00 | 99 | 1013.9 |
| 20260905125721 | 77 | 27 | 0.0 | 0.0 | 0.00 | 0.00 | 0.00 | 99 | 1014.1 |
| 20260905125215 | 76 | 128 | 0.9 | 1.7 | 0.00 | 0.00 | 0.00 | 99 | 1014.0 |
| 20260905124712 | 76 | 274 | 0.0 | 0.9 | 0.00 | 0.00 | 0.00 | 99 | 1013.8 |
| 20260905124208 | 76 | 298 | 0.0 | 0.0 | 0.00 | 0.00 | 0.00 | 99 | 1013.9 |
| 20260905123702 | 76 | 193 | 0.0 | 0.0 | 0.00 | 0.00 | 0.00 | 99 | 1014.1 |
| 20260905123200 | 76 | 222 | 0.0 | 0.0 | 0.00 | 0.00 | 0.00 | 99 | 1014.0 |
| 20260905122659 | 76 | 265 | 0.0 | 0.0 | 0.00 | 0.00 | 0.00 | 99 | 1014.0 |
| 20260905122154 | 76 | 295 | 0.0 | 0.0 | 0.00 | 0.00 | 0.00 | 99 | 1013.9 |
| 20260905121648 | 75 | 211 | 0.0 | 0.0 | 0.00 | 0.00 | 0.00 | 99 | 1013.8 |
| 20260905121144 | 76 | 305 | 0.0 | 0.0 | 0.00 | 0.00 | 0.00 | 99 | 1013.7 |
| 20260905120643 | 75 | 158 | 0.0 | 0.0 | 0.00 | 0.00 | 0.00 | 99 | 1013.6 |
| 20260905120138 | 76 | 289 | 0.0 | 0.0 | 0.00 | 0.00 | 0.00 | 99 | 1013.4 |
| 20260905115632 | 76 | 240 | 0.0 | 0.0 | 0.00 | 0.00 | 0.00 | 99 | 1013.3 |
| 20260905115127 | 76 | 256 | 0.0 | 0.0 | 0.00 | 0.00 | 0.00 | 99 | 1013.2 |
| 20260905114626 | 75 | 258 | 0.0 | 0.0 | 0.00 | 0.00 | 0.00 | 99 | 1013.5 |
| 20260905114125 | 75 | 267 | 0.0 | 0.0 | 0.00 | 0.00 | 0.00 | 99 | 1013.4 |